SCP
0 0 0 0 0 0 0 0 0 0 0 0 0 0 0 0 0 0 0 0 0 0 0 0 0 0 0 0 0 0 0 0 0 0 0 0 0 0 0 0 0 0 0
0 0 0 0 0 0 0 0 0 0 0 0 0 0 0 0 0 0 0 0 0 0 0 0 0 0 0 0 0 0 0 0 0 0 0 0 0 0 0 0 0 0 0
0 0 0 0 0 0 0 0 0 0 0 0 0 0 0 0 0 0 0 0 0 0 0 0 0 0 0 0 0 0 0 0 0 0 0 0 0 0 0 0 0 0 0
0 0 0 0 0 0 0 0 0 0 0 0 0 0 0 0 0 0 0 0 0 0 0 0 0 0 0 0 0 0 0 0 0 0 0 0 0 0 0 0 0 0 0
0 0 0 0 0 0 0 0 0 0 0 0 0 0 0 0 0 0 0 0 0 0 0 0 0 0 0 0 0 0 0 0 0 0 0 0 0 0 0 0 0 0 0
1 1 0 0 0 0 0 0 0 0 0 0 0 0 0 0 0 0 0 0 0 0 0 0 0 0 0 0 0 0 0 0 0 0 0 0 0 0 0 0 0 0 0
1 1 1 1 1 1 1 0 0 0 0 0 0 0 1 0 0 0 0 0 0 0 0 0 0 0 0 0 0 0 0 0 0 0 0 0 0 0 0 0 0 0 0
1 1 1 1 1 1 1 1 0 0 0 0 0 1 1 0 0 0 0 0 0 0 0 0 0 0 0 0 0 0 0 0 0 0 0 0 0 0 0 0 0 0 0
1 1 1 1 1 1 1 1 1 0 0 0 1 1 1 0 0 0 0 0 0 0 0 0 0 0 0 0 0 0 0 0 0 0 0 0 0 0 0 0 0 0 0
1 1 1 1 1 1 1 1 1 1 0 0 0 0 0 0 0 0 0 0 0 0 0 0 0 0 0 0 0 0 0 0 0 0 0 0 0 0 0 0 0 0 0
1 1 1 1 1 1 1 1 1 1 1 1 1 1 1 0 0 0 0 0 0 0 0 0 0 0 0 0 0 0 0 0 0 0 0 0 0 0 0 0 0 0 0
1 1 1 1 1 1 1 1 1 1 1 1 1 1 1 1 0 0 0 0 0 0 0 0 0 0 0 0 0 0 0 0 0 0 0 0 0 0 0 0 0 0 0
1 1 1 1 1 1 1 1 0 1 1 1 1 1 1 1 0 0 0 0 0 0 0 0 0 0 0 0 0 0 0 0 0 0 0 0 0 0 0 0 0 0 0
1 1 1 1 1 1 0 0 0 0 1 1 1 1 1 1 1 0 0 0 0 0 0 0 0 0 0 0 0 0 0 0 0 0 0 0 0 0 0 0 0 0 0
1 1 1 1 0 0 0 0 0 0 0 0 0 1 1 1 0 0 0 0 0 0 0 0 0 0 0 0 0 0 0 0 0 0 0 0 0 0 0 0 0 0 0
1 1 1 0 0 0 0 0 0 0 0 0 0 0 0 0 0 0 0 0 0 0 0 0 0 0 0 0 0 0 0 0 0 0 0 0 0 0 0 0 0 0 0
1 0 0 0 0 0 0 0 0 0 0 0 0 0 0 0 0 0 0 0 0 0 0 0 0 0 0 0 0 0 0 0 0 0 0 0 0 0 0 0 0 0 0
0 0 0 0 0 0 0 0 0 0 0 0 0 0 0 0 0 0 0 0 0 0 0 0 0 0 0 0 0 0 0 0 0 0 0 0 0 0 0 0 0 0 0
0 0 0 0 0 0 0 0 0 0 0 0 0 0 0 0 0 0 0 0 0 0 0 0 0 0 0 0 0 0 0 0 0 0 0 0 0 0 0 0 0 0 0
0 0 0 0 0 0 0 0 0 0 0 0 0 0 0 0 0 0 0 0 0 0 0 0 0 0 0 0 0 0 0 0 0 0 0 0 0 0 0 0 0 0 0
0 0 0 0 0 0 0 0 0 0 0 0 0 0 0 0 0 0 0 0 0 0 0 0 0 0 0 0 0 0 0 0 0 0 0 0 0 0 0 0 0 0 0
0 0 0 0 0 0 0 0 0 0 0 0 0 0 0 0 0 0 0 0 0 0 0 0 0 0 0 0 0 0 0 0 0 0 0 0 0 0 0 0 0 0 0
0 0 0 0 0 0 0 0 0 0 0 0 0 0 0 0 0 0 0 0 0 0 0 0 0 0 0 0 0 0 0 0 0 0 0 0 0 0 0 0 0 0 0
0 0 0 0 0 0 0 0 0 0 0 0 0 0 0 0 0 0 0 0 0 0 0 0 0 0 0 0 0 0 0 0 0 0 0 0 0 0 0 0 0 0 0
0 0 0 0 0 0 0 0 0 0 0 0 0 0 0 0 0 0 0 0 0 0 0 0 0 0 0 0 0 0 0 0 0 0 0 0 0 0 0 0 0 0 0
0 0 0 0 0 0 0 0 0 0 0 0 0 0 0 0 0 0 0 0 0 0 0 0 0 0 0 0 0 0 0 0 0 0 0 0 0 0 0 0 0 0 0
Wind_Speed
6 6 5 4 4 4 4 4 4 3 4 4 4 3 4 4 4 4 4 4 4 4 4 4 4 3 3 3 3 3 3 3 3 2 1 1 2 3 2 2 2 2 2
7 6 5 4 4 4 4 4 4 4 4 4 3 3 4 4 4 4 5 4 5 5 4 4 5 3 4 3 3 4 3 3 3 3 1 1 2 3 2 2 2 2 2
6 6 5 5 5 5 4 4 4 4 3 3 3 4 4 4 4 5 5 5 5 5 5 5 5 4 4 4 4 4 3 3 3 3 2 1 1 1 2 2 2 2 2
6 6 6 6 6 5 4 4 4 4 4 4 4 4 4 4 4 4 5 4 4 4 4 5 5 5 6 5 4 4 4 3 2 2 2 1 1 1 2 2 2 2 2
6 6 6 6 5 5 4 4 4 4 4 4 3 4 4 4 4 5 5 5 4 4 4 5 5 6 6 5 4 4 4 3 3 3 2 2 2 3 3 3 3 2 3
6 6 5 4 4 4 4 4 4 3 3 3 3 4 4 4 4 6 5 4 4 5 5 5 4 5 6 6 7 7 7 6 5 4 4 4 5 4 3 3 3 3 3
5 4 4 5 4 4 4 4 4 4 3 4 4 4 5 5 6 6 7 5 5 5 5 4 3 3 4 4 4 6 7 8 9 7 6 7 6 6 6 5 5 5 5
4 4 3 4 4 3 4 4 4 3 3 4 4 4 4 5 6 6 6 5 4 4 4 5 5 4 4 5 4 4 5 6 7 7 7 7 6 6 7 6 5 4 3
3 3 3 4 4 4 4 4 4 3 3 3 3 4 4 4 4 5 4 3 3 5 5 5 5 6 6 6 5 5 5 5 5 7 7 6 6 7 6 4 4 4 4
1 2 2 3 3 4 4 3 2 3 3 3 2 2 3 4 3 4 4 3 4 4 4 4 6 7 6 7 6 6 6 5 4 4 4 5 6 7 9 8 6 5 4
1 1 1 1 1 2 2 2 2 2 1 1 1 2 2 3 3 4 5 3 4 4 4 4 4 6 7 8 7 6 7 5 4 4 4 3 3 4 5 6 7 6 6
2 1 1 1 1 1 1 1 1 1 1 1 1 2 2 2 3 4 5 5 5 4 4 4 4 6 7 7 6 6 6 4 3 3 3 4 4 4 5 5 7 7 7
2 1 1 1 1 1 1 1 0 1 1 1 2 2 3 2 3 4 5 6 6 4 4 5 5 6 6 5 7 7 5 4 4 4 5 5 4 4 3 3 4 5 6
2 1 1 1 0 0 1 1 1 1 2 2 2 2 2 2 2 2 2 2 3 4 4 3 4 4 4 4 4 4 4 4 5 5 5 4 3 3 3 3 3 3 4
1 1 1 0 0 1 1 1 2 2 3 3 3 3 2 3 4 3 2 2 2 2 2 1 2 2 2 2 2 3 3 3 4 4 4 4 3 3 3 3 3 3 4
1 1 0 0 0 0 0 2 2 2 2 3 4 3 3 5 5 4 4 4 4 3 2 2 3 3 3 3 3 3 3 4 4 4 4 4 4 4 3 3 3 4 5
1 0 0 0 0 0 0 0 2 3 2 2 3 3 4 5 4 4 4 3 3 3 2 2 3 4 4 4 4 4 4 4 4 4 4 4 4 4 3 4 4 4 5
2 1 1 1 1 1 1 1 1 1 2 3 3 3 3 3 3 3 3 1 1 1 2 3 4 4 4 4 4 4 4 4 3 4 4 4 4 4 4 5 5 6 5
2 1 1 1 1 1 1 1 1 1 1 2 3 3 3 2 2 2 1 1 2 3 3 4 4 4 4 4 4 4 4 4 4 4 4 5 4 4 5 5 5 6 6
2 2 2 1 1 1 1 1 1 1 2 2 2 3 3 2 1 2 1 2 3 3 4 4 4 4 4 3 3 3 3 4 4 4 4 4 4 5 6 7 6 5 5
2 2 3 2 1 1 1 1 2 2 2 2 3 3 2 1 2 3 2 2 3 3 4 4 4 4 4 3 3 4 4 4 4 4 4 4 4 4 5 5 5 5 5
1 1 2 1 1 2 2 2 2 2 2 3 3 3 3 2 2 3 3 3 3 3 3 4 4 3 4 4 4 4 4 5 4 4 4 4 4 5 5 5 5 4 5
1 2 2 2 2 2 2 2 2 2 2 3 3 3 2 2 2 3 3 4 3 3 3 3 4 4 4 4 4 4 5 5 5 5 5 5 5 4 4 5 5 5 6
2 2 2 2 3 2 2 3 3 3 3 3 3 3 3 3 3 4 4 4 4 4 4 3 4 5 6 5 4 4 5 5 5 5 6 6 5 5 5 5 5 6 6
2 2 2 2 3 3 3 3 3 3 3 3 3 3 3 3 3 4 4 4 5 5 5 4 4 4 6 6 5 5 5 6 5 5 5 5 6 6 5 6 5 5 6
2 2 2 2 2 2 3 3 3 3 3 3 3 3 3 3 4 4 4 4 4 4 5 4 5 6 7 5 6 6 5 4 5 5 4 4 5 5 5 5 6 6 6
Wind_Direction
191 195 197 196 195 191 199 208 205 205 202 206 208 201 201 204 201 203 215 212 217 227 226 220 227 213 209 204 195 195 196 186 215 237 202 193 189 191 187 192 193 199 214
189 187 193 193 189 193 208 214 203 205 208 208 203 203 209 212 208 210 223 222 221 228 230 226 232 219 213 208 198 199 198 192 196 221 214 198 207 197 192 199 206 212 226
181 182 188 193 196 205 214 212 205 207 211 209 202 208 216 215 215 218 221 222 224 230 229 228 231 217 222 215 208 207 203 196 189 198 210 199 202 182 184 210 216 229 232
179 185 193 200 204 209 210 208 210 209 211 213 213 214 216 219 220 221 222 223 226 230 230 228 226 221 224 217 213 210 198 190 186 190 204 207 204 180 187 210 223 227 238
179 190 202 204 202 202 202 205 210 214 223 221 218 224 220 220 223 221 225 227 229 235 236 234 232 225 223 215 212 202 192 193 192 200 211 212 210 195 208 205 220 234 244
182 197 198 196 200 205 205 202 206 214 216 211 222 227 227 231 232 224 220 229 232 236 241 240 235 230 225 216 212 199 191 194 203 206 214 220 224 217 206 203 205 215 240
182 191 192 195 205 211 203 198 209 213 211 213 222 227 235 241 234 229 223 223 231 235 237 234 234 230 212 214 213 207 210 211 206 205 214 222 220 211 199 206 210 218 231
174 189 190 188 202 204 199 209 216 216 218 227 229 229 235 246 235 233 227 228 234 232 230 223 222 232 220 203 205 217 228 229 222 217 221 225 223 212 203 208 215 224 238
173 189 191 188 194 203 212 217 214 211 226 230 231 229 231 246 233 228 216 217 232 239 237 233 227 232 229 204 200 217 238 250 238 225 226 230 223 212 199 190 196 209 240
167 197 184 183 190 204 212 212 205 201 222 229 238 237 230 246 245 229 211 216 238 250 250 245 235 234 231 209 210 215 231 242 236 233 232 236 230 219 204 205 206 213 225
114 127 118 131 171 178 179 186 188 193 204 224 240 254 246 247 243 229 217 216 229 241 243 244 242 229 224 218 217 225 234 232 229 233 240 239 230 223 217 215 214 214 220
107 110 100 104 126 120 115 116 133 160 180 240 261 279 275 264 249 238 230 232 232 236 243 244 243 229 225 222 223 232 231 224 231 234 238 238 235 235 234 227 226 228 230
119 133 115 89 83 126 139 148 155 174 196 241 244 264 280 280 267 250 236 238 242 243 247 245 246 243 233 230 230 230 222 217 220 229 237 244 243 241 237 234 237 237 244
135 150 131 99 63 73 124 176 198 220 222 239 245 256 271 278 274 268 253 247 246 250 259 259 253 247 236 238 237 228 220 218 221 235 242 247 245 238 233 230 233 229 239
110 115 94 113 266 317 305 251 225 239 230 230 242 239 247 268 267 248 237 245 242 246 245 261 259 252 246 246 246 241 232 223 227 238 238 241 239 236 239 232 229 227 236
81 48 48 59 329 320 313 331 329 268 281 254 245 247 260 260 271 265 253 246 243 227 193 241 254 252 247 245 242 243 238 234 235 234 234 232 237 239 242 235 230 231 240
94 37 353 10 11 306 265 271 322 336 331 306 283 274 266 282 285 282 271 257 242 193 207 244 253 252 250 247 243 240 241 241 236 232 233 234 234 236 237 237 233 238 243
56 40 29 344 325 307 291 279 270 291 319 322 318 308 298 296 294 285 278 300 296 237 247 246 248 248 245 244 242 244 244 240 233 236 240 240 236 234 237 238 237 239 243
51 32 34 5 341 340 321 308 295 290 295 304 319 327 322 311 293 290 272 255 261 265 264 262 259 257 252 248 245 243 242 238 234 232 237 239 237 237 243 244 242 238 238
30 29 34 16 356 355 345 320 309 304 296 297 305 312 327 341 323 306 268 258 257 265 268 268 266 265 261 258 255 249 245 242 238 236 239 242 240 237 241 244 243 240 238
18 15 33 31 13 356 340 316 306 299 302 307 310 313 314 290 287 285 280 271 265 267 271 270 268 267 261 257 256 255 252 251 246 241 241 245 245 244 246 245 243 240 241
19 10 14 17 4 352 335 321 321 325 325 322 321 324 323 313 303 298 292 288 282 277 278 278 273 269 268 263 259 257 258 260 258 252 250 248 245 246 247 244 244 243 241
21 16 15 4 358 357 336 328 332 331 328 321 314 314 316 309 304 298 293 293 292 289 283 275 273 274 275 272 266 259 260 264 266 262 254 251 248 245 243 243 244 245 244
25 18 15 7 7 3 345 337 332 327 325 319 314 310 309 307 305 305 305 305 305 299 292 283 279 283 287 284 276 270 269 272 269 260 254 250 248 246 242 241 241 242 245
28 24 20 8 355 351 348 342 337 336 333 324 319 316 315 315 315 317 319 319 315 310 309 306 298 295 293 291 294 295 294 288 278 273 259 250 250 248 245 244 243 241 239
28 23 13 360 348 345 343 340 341 340 335 332 329 328 327 328 328 328 325 324 321 320 323 324 325 320 312 306 305 304 296 291 288 280 267 257 254 254 254 247 245 242 241